Flag for China Weather past 2 weeks in Kashgar, Xinjiang, China

Now
84 °F

Scattered clouds.


Feels Like: 81 °F
Forecast: 76 / 82 °F
Wind: 6 mph from North

Location: Kashi Airport

Current Time: Jul 30, 2015 at 12:39:24 PM

Latest Report: Jul 30, 2015 at 12:00 PM


Visibility: N/A

Pressure: 29.80 "Hg (25.73 "Hg at 1298m altitude)

Humidity: 19%

Dew point: 37 °F

Location of KashgarLocation

Historic Weather in Kashgar — Graph

°F

Kashgar temperature yesterday

Maximum temperature yesterday: 91 °F (at 6:00 PM)
Minimum temperature yesterday: 70 °F (at 3:00 AM)
Average temperature yesterday: 80 °F

Past Weeks' High & Low Weather Summary

 TemperatureHumidityPressure
High102 °F (Jul 18, 5:00 PM)78% (Jul 29, 3:00 AM)29.98 "Hg (Jul 29, 3:00 AM)
Low70 °F (Jul 29, 3:00 AM)6% (Jul 18, 8:00 PM)29.62 "Hg (Jul 18, 7:00 PM)
Average89 °F19%29.77 "Hg
* Reported Jul 15 11:00 AM — Jul 30 11:00 AM, Kashgar, Weather by CustomWeather, © 2015

Note: Actual official high and low records may vary slightly from our data, if they occured in-between our weather recording intervals... More about our weather records

Advertising

Kashgar weather history for previous 24 hours

 ConditionsComfort  
Time TempWeatherWind HumidityBarometerVisibility
11:00 AM
Thu, Jul 30
84 °FSunny.10 mph25%29.80 "Hg10 mi
10:00 AM84 °FPassing clouds.8 mph18%29.77 "HgN/A
9:00 AM79 °FScattered clouds.8 mph28%29.77 "HgN/A
8:00 AM79 °FPartly sunny.8 mph28%29.74 "HgN/A
7:00 AM79 °FPassing clouds.13 mph30%29.74 "HgN/A
6:00 AM79 °FPassing clouds.8 mph32%29.74 "HgN/A
5:00 AM81 °FPassing clouds.6 mph30%29.74 "HgN/A
4:00 AM82 °FPassing clouds.13 mph28%29.74 "HgN/A
3:00 AM82 °FClear.8 mph30%29.77 "Hg10 mi
2:00 AM82 °FClear.8 mph21%29.77 "Hg10 mi
1:00 AM84 °FPassing clouds.6 mph23%29.74 "HgN/A
12:00 AM84 °FPassing clouds.3 mph35%29.74 "HgN/A
11:00 PM
Wed, Jul 29
86 °FPassing clouds.No wind33%29.74 "HgN/A
10:00 PM88 °FPartly sunny.3 mph27%29.71 "HgN/A
9:00 PM90 °FScattered clouds.6 mph22%29.68 "HgN/A
8:00 PM90 °FSunny.8 mph27%29.65 "Hg10 mi
7:00 PM91 °FSunny.6 mph23%29.65 "Hg10 mi
6:00 PM91 °FSunny.8 mph23%29.65 "Hg10 mi
5:00 PM90 °FSunny.8 mph29%29.65 "Hg10 mi
4:00 PM90 °FSunny.3 mph20%29.68 "Hg10 mi
3:00 PM88 °FPassing clouds.13 mph21%29.68 "HgN/A
2:00 PM81 °FSunny.10 mph51%29.71 "Hg10 mi
1:00 PM77 °FScattered clouds.13 mph54%29.74 "HgN/A
12:00 PM73 °FScattered clouds.15 mph61%29.77 "HgN/A
Weather by CustomWeather, © 2015

See weather overviewHow to use our weather pages